Location: Bogis-Bossey
(46.3500°N, 6.1667°E)
Time: 17:28:10
(UTC+00:00)

Atlas Centaur 2 - Pass Details

Date: 17 August 2022
Orbit: 459 x 1302 km, 30.4° (Epoch: 01 October)

Event Time Altitude Azimuth Distance (km) Brightness Sun altitude
Rises 19:35:30 0° 220° (SW) 4,274 6.0 -9.2°
Reaches altitude 10° 19:39:33 10° 204° (SSW) 3,299 5.2 -9.8°
Maximum altitude 19:44:51 18° 164° (SSE) 2,640 4.3 -10.6°
Enters shadow 19:48:39 13° 133° (SE) 2,898 4.3 -11.2°
